This demonstration page uses our WeatherBlox Daily Observations layout. Learn more.

Left ArrowRight Arrow

39.95238, -75.16362

Hourly Observations for May 18, 2015

Temp ( °F °C ) Dew Point ( °F °C ) Humidity (%) Winds ( mph kmh ) Pressure ( in mb ) Visibility ( mi km ) Precip ( " mm )
12:54 am 00:54 Mostly Clear 72 22.2 67 19.4 84 84 WSW 3 6 30.12 1020 10 16 0.00 0.00
1:06 am 01:06 Mostly Clear 72 22 66 19 83 83 Calm 30.12 1020 9 14 0.00 0.00
1:54 am 01:54 Mostly Clear 72 22.2 67 19.4 84 84 WSW 3 6 30.10 1019 7 11 0.00 0.00
2:54 am 02:54 Partly Cloudy 71 21.7 66 18.9 84 84 WSW 5 7 30.10 1019 7 11 0.00 0.00
3:31 am 03:31 Partly Cloudy with Mist and Fog 71 21.7 67 19.4 87 87 WSW 3 6 30.09 1019 6 10 0.00 0.00
3:54 am 03:54 Partly Cloudy with Mist and Fog 70 21.1 67 19.4 90 90 WSW 5 7 30.10 1019 6 10 0.00 0.00
4:54 am 04:54 Cloudy with Mist and Fog 70 21.1 67 19.4 90 90 E 3 6 30.09 1019 5 8 0.00 0.00
5:02 am 05:02 Cloudy with Mist and Fog 69 20.6 66 18.9 90 90 Calm 30.09 1019 4 6 0.00 0.00
5:38 am 05:38 Cloudy with Mist and Fog 70 21.1 67 19.4 90 90 Calm 30.09 1019 5 8 0.00 0.00
5:54 am 05:54 Mostly Cloudy with Mist and Fog 71 21.7 67 19.4 87 87 Calm 30.10 1019 5 8 0.00 0.00
6:54 am 06:54 Cloudy with Mist and Fog 72 22.2 68 20 87 87 Calm 30.11 1020 5 8 0.00 0.00
7:54 am 07:54 Mostly Cloudy with Haze 73 22.8 68 20 84 84 SSE 3 6 30.11 1020 5 8 0.00 0.00
8:54 am 08:54 Hazy 76 24.4 69 20.6 79 79 SSE 5 7 30.11 1020 6 10 0.00 0.00
9:54 am 09:54 Hazy 81 27.2 68 20 65 65 VRB 3 6 30.10 1019 6 10 0.00 0.00
10:49 am 10:49 Partly Cloudy 84 29 68 20 58 58 E 7 11 30.09 1019 9 14 0.00 0.00
10:54 am 10:54 Partly Cloudy 86 30 69 20.6 57 57 E 6 9 30.10 1019 9 14 0.00 0.00
11:09 am 11:09 Partly Cloudy 85 29.4 68 20 57 57 E 5 7 30.09 1019 10 16 0.00 0.00
11:54 am 11:54 Partly Cloudy 86 30 67 19.4 53 53 E 7 11 30.09 1019 10 16 0.00 0.00
12:54 pm 12:54 Mostly Cloudy 80 26.7 70 21.1 71 71 NE 9 15 30.09 1019 10 16 0.03 0.76
1:17 pm 13:17 Mostly Cloudy with Haze 79 26.1 67 19.4 67 67 NE 13 20 30.09 1019 6 10 0.00 0.00
1:54 pm 13:54 Mostly Cloudy with Haze 81 27.2 68 20 65 65 ENE 12 19 30.08 1019 6 10 0.00 0.00
2:11 pm 14:11 Mostly Cloudy 82 27.8 67 19.4 60 60 NE 13 20 30.09 1019 7 11 0.00 0.00
2:54 pm 14:54 Partly Cloudy 80 26.7 65 18.3 60 60 ENE 13 20 30.08 1019 7 11 0.00 0.00
3:54 pm 15:54 Mostly Cloudy 77 25 63 17.2 62 62 ENE 14 22 30.08 1019 7 11 0.00 0.00
4:37 pm 16:37 Mostly Cloudy 74 23.3 62 16.7 67 67 ENE 13 20 30.09 1019 10 16 0.00 0.00
4:54 pm 16:54 Mostly Cloudy 72 22.2 61 16.1 68 68 NE 13 20 30.09 1019 10 16 0.00 0.00
5:20 pm 17:20 Mostly Cloudy 71 21.7 61 16.1 71 71 ENE 16 26 30.09 1019 8 13 0.00 0.00
5:48 pm 17:48 Cloudy 70 21 61 16 73 73 E 16 26 30.09 1019 7 11 0.00 0.00
5:54 pm 17:54 Cloudy 68 20 61 16.1 78 78 E 14 22 30.08 1019 7 11 0.00 0.00
6:23 pm 18:23 Cloudy 68 20 61 16.1 78 78 E 12 19 30.09 1019 9 14 0.00 0.00
6:54 pm 18:54 Cloudy 66 18.9 60 15.6 81 81 E 12 19 30.08 1019 7 11 0.00 0.00
7:28 pm 19:28 Cloudy 65 18.3 60 15.6 84 84 E 13 20 30.09 1019 8 13 0.00 0.00
7:54 pm 19:54 Cloudy 64 17.8 60 15.6 87 87 ENE 10 17 30.11 1020 8 13 0.00 0.00
8:14 pm 20:14 Cloudy 64 17.8 59 15 84 84 E 12 19 30.12 1020 8 13 0.00 0.00
8:42 pm 20:42 Cloudy with Mist and Fog 63 17 59 15 88 88 ENE 10 17 30.12 1020 6 10 0.00 0.00
8:54 pm 20:54 Cloudy with Mist and Fog 62 16.7 59 15 90 90 E 12 19 30.11 1020 5 8 0.00 0.00
9:09 pm 21:09 Cloudy with Mist and Fog 62 16.7 59 15 90 90 E 12 19 30.12 1020 6 10 0.00 0.00
9:31 pm 21:31 Cloudy 62 16.7 58 14.4 86 86 ENE 12 19 30.12 1020 7 11 0.00 0.00
9:54 pm 21:54 Cloudy 62 16.7 58 14.4 86 86 E 12 19 30.10 1019 8 13 0.00 0.00
10:18 pm 22:18 Cloudy with Mist and Fog 61 16.1 58 14.4 90 90 E 10 17 30.09 1019 6 10 0.00 0.00
10:54 pm 22:54 Cloudy with Mist and Fog 61 16.1 58 14.4 90 90 ENE 6 9 30.10 1019 5 8 0.00 0.00
11:08 pm 23:08 Cloudy with Mist and Fog 61 16 57 14 88 88 NE 8 13 30.09 1019 4 6 0.00 0.00
11:30 pm 23:30 Cloudy with Mist and Fog 61 16.1 58 14.4 90 90 E 6 9 30.09 1019 3 4 0.00 0.00
11:54 pm 23:54 Cloudy with Drizzle 61 16.1 59 15 93 93 E 6 9 30.08 1019 2 3 0.00 0.03

Powered by AerisWeather